Tracking 30986 objects as of 9-Jul-2025
HD Live streaming from Space Station
objects crossing your sky now

CZ-6A DEB

Track CZ-6A DEB now!
10-day predictions


NORAD ID: 55900
Int'l Code: 2022-151AAY
Perigee: 807.0 km
Apogee: 857.0 km
Inclination: 98.8 °
Period: 101.4 minutes
Semi major axis: 7202 km
RCS: Unknown
Launch date: November 11, 2022
Source: People's Republic of China (PRC)
Launch site: Taiyaun Space Center, China (TSC)

Note: This is SATELLITE DEBRIS
Your satellite tracking list
Your tracking list is empty




NASA's NSSDC Master Catalog

Two Line Element Set (TLE):
1 55900U 22151AAY 25189.50194281  .00000923  00000-0  45068-3 0  9995
2 55900  98.7691 197.3984 0034715 243.5749 116.1863 14.20151534130822
Source of the keplerian elements: AFSPC